Weather History for KEED - October, 2012

Change the Weather History Date:

Monday, October 8, 2012

  Actual Average Record
Temperature  
Mean Temperature 80 °F -  
Max Temperature 96 °F 91 °F 105 °F (1964)
Min Temperature 66 °F 64 °F 50 °F (1949)
Cooling Degree Days 16    
Growing Degree Days 30 (Base 50)    
Moisture  
Dew Point 39 °F    
Average Humidity 22    
Maximum Humidity 31    
Minimum Humidity 15    
Precipitation  
Precipitation 0.00 in - - ()
Sea Level Pressure  
Sea Level Pressure 29.76 in    
Wind  
Wind Speed 5 mph (WSW)    
Max Wind Speed 12 mph    
Max Gust Speed 18 mph    
Visibility 10 miles    
Events      
Averages and records for this station are not official NWS values.
T = Trace of Precipitation, MM = Missing Value Source: NWS Daily Summary

Daily Weather History Graph

Daily Weather History Graph

Search for Another Location

Airport or City:

Trip Planner

Search our weather history database for the weather conditions in past years. The results will help you decide how hot, cold, wet, or windy it might be!

Date:

Astronomy

Oct. 08, 2012 Rise Set
Actual Time 6:39 AM PDT 6:12 PM PDT
Civil Twilight 6:13 AM PDT 6:37 PM PDT
Nautical Twilight 5:44 AM PDT 7:06 PM PDT
Astronomical Twilight 5:15 AM PDT 7:35 PM PDT
Moon No Moon Rise 1:49 PM PDT (10/8)
Length of Visible Light 12h 23m
Length of Day
11h 33m
Last Quarter, 45% of the Moon is Illuminated
Oct 8
Last Quarter
Oct 15
New
Oct 21
First Quarter
Oct 29
Full
Nov 6
Last Quarter

Hourly Weather History & Observations

Time (PDT) Temp. Dew Point Humidity Pressure Visibility Wind Dir Wind Speed Gust Speed Precip Events Conditions
12:56 AM 75.0 °F 35.1 °F 23% 29.75 in 10.0 mi West 5.8 mph - N/A   Clear
1:56 AM 75.0 °F 32.0 °F 21% 29.76 in 10.0 mi NNW 5.8 mph - N/A   Clear
2:56 AM 71.1 °F 32.0 °F 24% 29.76 in 10.0 mi Calm Calm - N/A   Clear
3:56 AM 69.1 °F 30.9 °F 24% 29.76 in 10.0 mi NNW 3.5 mph - N/A   Clear
4:56 AM 70.0 °F 32.0 °F 25% 29.77 in 10.0 mi West 8.1 mph - N/A   Clear
5:56 AM 69.1 °F 36.0 °F 30% 29.79 in 10.0 mi WNW 4.6 mph - N/A   Clear
6:56 AM 66.9 °F 35.1 °F 31% 29.81 in 10.0 mi Calm Calm - N/A   Clear
7:56 AM 73.9 °F 36.0 °F 25% 29.83 in 10.0 mi Calm Calm - N/A   Clear
8:56 AM 77.0 °F 35.1 °F 22% 29.83 in 10.0 mi Calm Calm - N/A   Clear
9:56 AM 80.1 °F 37.9 °F 22% 29.84 in 10.0 mi Calm Calm - N/A   Clear
10:56 AM 84.9 °F 37.0 °F 18% 29.82 in 10.0 mi Calm Calm - N/A   Clear
11:56 AM 89.1 °F 42.1 °F 19% 29.79 in 10.0 mi Calm Calm - N/A   Clear
1:56 PM 93.9 °F 43.0 °F 17% 29.73 in 10.0 mi Variable 5.8 mph 18.4 mph N/A   Clear
2:56 PM 95.0 °F 41.0 °F 15% 29.72 in 10.0 mi SW 11.5 mph - N/A   Clear
3:56 PM 95.0 °F 43.0 °F 17% 29.71 in 10.0 mi South 6.9 mph - N/A   Clear
4:56 PM 95.0 °F 42.1 °F 16% 29.70 in 10.0 mi SW 10.4 mph - N/A   Clear
5:56 PM 93.0 °F 43.0 °F 18% 29.70 in 10.0 mi SSW 9.2 mph - N/A   Clear
7:56 PM 87.1 °F 45.0 °F 23% 29.73 in 10.0 mi SW 6.9 mph - N/A   Clear
8:56 PM 86.0 °F 48.9 °F 28% 29.74 in 10.0 mi SW 8.1 mph - N/A   Clear
9:56 PM 82.9 °F 46.9 °F 28% 29.75 in 10.0 mi West 6.9 mph - N/A   Clear
10:56 PM 82.0 °F 39.9 °F 22% 29.75 in 10.0 mi WSW 9.2 mph - N/A   Clear
11:56 PM 81.0 °F 39.0 °F 22% 29.74 in 10.0 mi Calm Calm - N/A   Clear